Location: Hungerford
(51.4167°N, 1.5167°W)
Time: 03:59:18
(UTC+00:00)

Cosmos 2251 Rocket - Pass Details

Date: 18 September 2020
Orbit: 764 x 792 km, 74.0° (Epoch: 18 October)

Event Time Altitude Azimuth Distance (km) Brightness Sun altitude
Rises 21:46:36 0° 334° (NNW) 3,303 7.9 -30.1°
Reaches altitude 10° 21:49:00 10° 335° (NNW) 2,368 6.9 -30.3°
Enters shadow 21:53:18 58° 333° (NNW) 921 4.0 -30.8°
